Voltar ao catálogo

CZ-6A DEB

AtivoPO
NORAD 54276·DEBRIS·🇨🇳 China

Lançado Nov 11, 2022 de Taiyuan Satellite Launch Center

Loading…

Próximas Passagens (próximas 24 horas)

TLE

AtualizadoSource: Space-Track

Época: Sep 14, 2026, 05:25 UTC

1 54276U 22151T   26257.22615031  .00000372  00000-0  36321-3 0  9997
2 54276  98.8632 177.2260 0203866 297.1898  60.8605 13.76425473192230

Acompanhe CZ-6A DEB em tempo real com AllMySat

Download on the App Store